Starlink 30845

operational
NORAD ID: 58207 Int'l Des: 2023-170 Owner: SPXS Country: US Constellation: starlink
LEOCIRCULAR

Über Starlink 30845

Beschreibung wird geladen...

Live-Position

3D-Globus wird geladen...

Nächste Überflüge

Höhenverlauf

Altitude vs Time

uPlot chart will show altitude changes over time

Zweizeiliger Elementsatz

1 58207U 23170B 26034.26450199 .00000339 00000-0 40147-4 0 9991
2 58207 43.0055 22.7666 0001155 268.9643 91.1068 15.02539421125106
Epoch: 3. Feb. 2026 • Age: 23 hours

Aktueller Status

Höhe 560.4 km
Geschwindigkeit 7.59 km/s
Subsatellitenpunkt 30.58°N, 54.91°W
Startdatum 4. Nov. 2023
Alter 2.2 years
Typ internet

Technische Details

Klassifizierung Payload
Masse 730.00 kg
Trockenmasse 700.00 kg
Gesamtmasse 730.00 kg
Länge 0.30 m
Durchmesser 4.10 m
Spannweite 29.00 m
Form Box + pan
Hersteller SPXS
Bus-Typ Starlink V2M
Phasenstatus In Orbit
Besitzer/Staat SPXS/US

Große Konstellationen

Loading constellations...